Regional Weather Roundup
Issued by NWS

Home | Current Version | Previous Version | Graphics & Text | Print | Product List | Glossary On
Versions: 1 2 3 4 5 6 7 8 9 10 11 12 13 14 15 16 17 18 19 20 21 22 23 24 25 26 27 28 29 30 31 32 33 34 35 36 37 38 39 40 41 42 43 44 45 46 47 48 49 50
000
ASUS45 KTFX 301319
RWRMT
MONTANA REGIONAL WEATHER ROUNDUP
NATIONAL WEATHER SERVICE GREAT FALLS MT
700 AM MDT SUN AUG 30 2015

NOTE: "FAIR" INDICATES FEW OR NO CLOUDS BELOW 12000 FEET WITH NO
SIGNIFICANT WEATHER AND/OR OBSTRUCTIONS TO VISIBILITY.

MTZ001>007-043-301400-
WEST OF THE DIVIDE

CITY           SKY/WX    TMP DP  RH WIND       PRES   REMARKS
KALISPELL      PTSUNNY   58  53  84 SE9       29.86R
MISSOULA       CLOUDY    55  51  86 CALM      29.90S
BUTTE          CLOUDY    53  46  77 SE12      29.95F
MULLAN PASS    PTCLDY    45  38  76 VRB6      29.97S
DEER LODGE       N/A     57  48  72 CALM      29.96S
EUREKA           N/A     55  43  62 CALM        N/A
HAMILTON         N/A     54  52  94 S5        29.90S
LIBBY            N/A     48  45  87 CALM      29.86S
PLAINS           N/A     56  49  77 MISG      29.90S
RONAN            N/A     57  53  86 CALM      29.95R
THOMPSON FALLS   N/A     53  51  93 MISG      29.93S
$$

MTZ008-052>055-301400-
SOUTHWEST MONTANA

CITY           SKY/WX    TMP DP  RH WIND       PRES   REMARKS
BOZEMAN        LGT RAIN  59  52  77 NW9       30.01R
DILLON         CLOUDY    58  47  66 S21G31    29.96F
W YELLOWSTONE  MOCLDY    48  48 100 CALM      30.08R
THREE FORKS      N/A     64  52  65 SW22      29.97R
TWIN BRIDGES     N/A     57  46  66 SE9       29.97F
$$

MTZ009-010-012-014-046-048-049-054-301400-
EAST SLOPES AND CENTRAL MONTANA

CITY           SKY/WX    TMP DP  RH WIND       PRES   REMARKS
CUT BANK       CLOUDY    58  40  51 SW12      29.83S
GREAT FALLS    CLOUDY    59  53  80 S7        29.84R HAZE
MALMSTROM AFB  CLOUDY    61  50  66 SW8       29.85R FOG
HELENA         CLOUDY    65  49  56 S18G26    29.90R
CONRAD           N/A     60  56  87 SW2       29.88R
$$

MTZ011-013-016-021-045-047-050-051-301400-
NORTH CENTRAL MONTANA

CITY           SKY/WX    TMP DP  RH WIND       PRES   REMARKS
HAVRE          CLOUDY    66  49  54 MISG      29.79R
LEWISTOWN      CLOUDY    63  50  62 W7        29.87R
N BAR RANCH      N/A     63  46  55 NW9       29.88R
CHINOOK          N/A     63  52  67 CALM      29.77R
FORT BENTON      N/A     61  52  72 CALM      29.83F
$$

MTZ017>020-022>027-061-062-301400-
NORTHEAST MONTANA

CITY           SKY/WX    TMP DP  RH WIND       PRES   REMARKS
GLASGOW        MOCLDY    69  52  54 NW12      29.69R HAZE
JORDAN           N/A     71  50  47 SW5       29.74R
SIDNEY         MOCLDY    64  54  68 NW3       29.63F
WOLF POINT     CLOUDY    65  51  60 SW7       29.67R HAZE
MALTA            N/A     66  53  63 CALM      29.69F
PLENTYWOOD       N/A     68  54  60 NW3       29.65F
POPLAR           N/A     64  52  63 SW6       29.65R
SCOBEY           N/A     65  48  53 NW2       29.67S
$$

MTZ028>42-056>058-301400-
SOUTHCENTRAL AND SOUTHEAST MONTANA

CITY           SKY/WX    TMP DP  RH WIND       PRES   REMARKS
BAKER          CLOUDY    63  49  60 CALM      29.75R
BILLINGS       CLOUDY    76  43  30 CALM      29.79S
LIVINGSTON     CLOUDY    64  52  64 W14       29.92R
MILES CITY     CLOUDY    68  45  43 N7        29.71R
EKALAKA          N/A     79  37  22 SW6       29.80R
FORSYTH          N/A     72  46  40 E6        29.71F
LAUREL           N/A     70  45  40 SW2       29.82R
ROUNDUP          N/A     67  46  46 CALM      29.72F
$$

REGIONAL REPORTS...DAKOTAS

CITY           SKY/WX    TMP DP  RH WIND       PRES   REMARKS
WILLISTON      MOCLDY    62  54  74 CALM      29.65F HAZE
MINOT          MOCLDY    67  58  72 SE5       29.67S
BEACH            N/A     63  48  59 S10       29.71S
CROSBY           N/A     64  55  72 S8        29.64F
BISMARCK       MOCLDY    64  60  87 SE6       29.74F
GRAND FORKS    PTSUNNY   65  63  93 S17       29.77F
FARGO          SUNNY     65  61  87 S14       29.83S
BUFFALO SD       N/A     65  47  52 S10       29.70
RAPID CITY     CLEAR     61  48  62 SE6       29.84S
$$

REGIONAL REPORTS...WYOMING/IDAHO/WASHINGTON

CITY           SKY/WX    TMP DP  RH WIND       PRES   REMARKS
GILLETTE       CLOUDY    77  33  20 SW21      29.86R
SHERIDAN       CLOUDY    65  44  46 S8        29.84S
BUFFALO WY     CLOUDY    74  37  26 NW10      29.92R
CODY           CLOUDY    68  45  42 SE10G16   29.92S
YELLOWSTONE LA   N/A     45  43  93 CALM      30.17R
IDAHO FALLS    PTCLDY    62  48  60 S16       29.99R
SALMON         PTCLDY    63  45  51 SW5       29.91S
BOISE          CLEAR     57  43  59 CALM      29.94R
SPOKANE        CLOUDY    54  43  66 SE6       29.84S
$$

REGIONAL REPORTS...ALBERTA

CITY           SKY/WX    TMP DP  RH WIND       PRES   REMARKS
EDMONTON       CLEAR     46  41  81 SW3       29.50S
CALGARY        PTCLDY    54  36  50 SW10      29.63S
LETHBRIDGE     MOCLDY    61  39  44 SW12      29.74S
MEDICINE HAT   MOCLDY    61  45  55 SW15G21   29.69S
WATERTON GATE    N/A     59  36  41 SW24G36     N/A
MILK RIVER       N/A     59  39  47 SW10        N/A
ONEFOUR          N/A     63  46  55 W13         N/A
$$

REGIONAL REPORTS...SASKATCHEWAN

CITY           SKY/WX    TMP DP  RH WIND       PRES   REMARKS
SWIFT CURRENT  CLOUDY    64  46  52 SW10      29.73R
REGINA         MOCLDY    61  52  72 SW9       29.65R SMOKE
SASKATOON      MOCLDY    63  55  77 SW9       29.62R SMOKE
CYPRESS HILLS    N/A     63  39  42 W6          N/A
VAL MARIE        N/A     59  55  88 E8          N/A
ROCKGLEN         N/A     66  54  63 NW10        N/A
ASSINIBOIA       N/A     43  41  93 S6          N/A
$$



USA.gov is the U.S. government's official web portal to all federal, state and local government web resources and services.